THOR ALTAIR R/B, 1583

Orbit data source: Space-Track

THOR ALTAIR R/B, 1583 is space debris in SSO originally from a launch on Fri, 10 Sep 1965 UTC launched from the Air Force Western Test Range (AFWTR). Debris objects in space refer to the collection of defunct objects orbiting the Earth. Examples of debris include non-operational satellites, rocket bodies, and fragments generated from explosions, collisions, or faulty payload assembly.

Loading next visibility...
Identifier
1583, 1965-072D
Orbit
SSO
Country
Flag of USUS
Related business
Manufacturer
UTC
Mission
Spacecraft
Bus & Motor
FW4, Unknown motor
Mass
25 kg wet, 25 kg dry
Launch date (UTC)
1965-09-10 (60 years ago)
Launch vehicle
Unknown
Launch site
Air Force Western Test Range (AFWTR)
Object type
Payload
Rocket body
Debris
Shape & HBR
Unknown
Radar Cross Section
Medium (>0.1 m² and <1 m²)

Expand to show TLE details & history
Last TLE update: 11 hours ago

TLE from 11 hours ago
0 THOR ALTAIR R/B
1  1583U 65072D   25299.39010272  .00002639  00000-0  44475-3 0  9995
2  1583  98.4169 164.0443 0140851 243.7180 114.9493 14.64085595132725
Epoch: 2025-10-26T09:21Z
TLE epoch observation values (Epoch: 2025-10-26T09:21:44.875Z)
Latitude
-0.00005°
Longitude
-11.39966°
Altitude
726.081 km
Speed
7.469 km/s
True Right ascension
10h 56m 10s
True Declination
0° 00' 00"
Sunlit
Object was in daylight at epoch
Visualization orbit readout
Latitude
Unknown
Longitude
Unknown
Altitude
Unknown
Speed
Unknown
Apparent Right ascension
Unknown
Apparent Declination
Unknown
Sunlit
N/A
Visualization observer readout
Local Sidereal Time
16:04:37
Azimuth
Unknown
Elevation
Unknown
Doppler factor
Unknown
Orbital elements
Apogee altitude
776.471 km
Perigee altitude
577.724 km
Semi-major axis
7,055.235 km
Eccentricity
0.01409
Inclination
98.4169°
RAAN
164.0443°
Arg. of periapsis
243.718°
True anomaly
116.40177°
Mean anomaly
114.9493°
Eccentric anomaly
115.67663°
Mean motion
3.66249 °/min
Orbital period
98.29 mins
BSTAR
0.00044475
Loading maneuver chart data...
Computing Atmospheric mass density...
Loading historical data...
Loading historical data...
Loading historical data...
Loading historical data...
Loading historical data...
Loading historical data...
Loading historical data...

Documentation

Showing up to 5 results
|